Dewpoint
50 49 50 50 50 50 49 49 49 50 50 50 50 50 50 50 51 51 51 51 51 51 51 52 52 52 53 53 53 54 54 50 47 46 45 45 51 59 61 61 59 59 57 43 42 37 27 30 33 35 36 34 29 26 21 16 15 19 19 16 13 13 12 11 3 8 10 8 10 12 13 11 5 6 14 13 16 12 49 56 58 61 63 64 64 65 65 66
49 49 49 50 49 50 50 50 50 49 50 50 50 50 50 50 50 51 51 51 51 52 52 52 52 53 53 53 53 54 52 49 46 46 45 49 55 60 61 60 60 58 54 37 36 35 23 25 30 33 35 31 27 22 19 13 14 12 18 16 10 10 10 9 5 6 7 8 14 14 10 13 11 11 10 8 6 14 48 57 59 61 62 63 66 66 65 66
50 50 49 49 49 49 49 50 49 49 49 49 49 50 50 50 50 50 51 51 51 51 51 52 52 53 53 53 53 54 51 47 45 44 44 55 55 58 62 61 60 59 35 33 34 34 24 24 28 32 32 28 23 20 15 9 11 10 16 13 11 9 7 7 7 10 9 8 7 9 14 14 9 6 13 10 6 28 50 55 59 60 61 62 65 66 66 66
48 49 49 49 49 49 49 49 49 49 49 49 49 49 50 50 50 50 50 51 51 51 52 52 52 52 52 53 53 52 49 46 39 35 46 58 57 58 59 60 60 59 36 31 33 34 30 26 29 31 28 25 21 18 11 8 11 10 10 9 9 9 6 7 7 12 11 9 10 9 7 5 8 13 12 10 6 44 50 54 56 59 61 61 62 65 66 66
48 48 48 48 49 49 49 49 49 49 49 49 49 49 50 50 50 50 50 50 51 51 52 52 52 52 52 53 53 50 45 35 28 42 48 60 58 58 59 59 62 51 41 31 28 27 27 29 30 27 25 21 19 16 11 7 11 10 8 9 8 8 7 6 15 14 11 11 12 14 7 6 3 12 12 10 10 30 52 53 56 60 61 62 62 64 66 66
49 48 48 48 48 48 48 49 49 49 49 49 49 49 50 50 50 50 50 50 51 51 51 52 52 52 53 53 51 48 41 22 35 40 61 59 59 60 61 63 61 49 39 33 29 29 32 32 28 23 22 19 16 13 9 6 9 6 5 5 6 6 4 4 7 15 11 11 13 11 10 6 9 15 11 9 9 47 54 55 57 59 60 62 63 64 65 65
49 50 48 48 48 48 48 49 49 49 49 49 49 49 50 50 50 50 50 50 51 51 52 51 52 52 52 52 47 46 42 37 36 45 59 62 61 62 61 61 58 45 41 32 29 29 35 32 25 23 21 17 16 15 14 6 7 5 4 6 6 7 6 5 4 10 9 12 13 12 7 8 9 10 15 7 6 51 54 57 59 60 60 62 63 64 65 65
48 48 48 49 48 48 48 49 49 49 49 49 49 49 49 49 49 50 50 50 51 51 51 51 51 51 52 49 41 40 41 37 36 43 64 63 60 60 58 53 43 38 38 34 31 31 36 32 23 23 20 16 15 14 14 12 6 4 4 5 5 5 6 6 8 9 12 13 11 12 7 6 10 11 9 4 12 55 56 56 57 60 61 62 64 65 65 65
48 48 48 48 48 48 48 48 48 48 48 49 48 49 49 49 49 49 49 50 50 50 51 51 51 51 52 49 44 40 33 35 37 46 61 57 52 56 50 46 40 33 35 35 35 36 37 31 24 23 20 19 18 15 12 8 5 4 4 5 5 5 5 5 6 9 9 15 11 11 8 7 7 8 5 4 4 34 55 55 57 60 61 62 64 65 65 65
49 49 48 48 48 48 48 48 48 48 48 49 48 49 49 49 49 49 49 50 50 51 51 51 51 51 49 45 40 36 34 44 46 51 54 53 53 53 50 40 37 30 32 35 38 37 34 26 23 24 22 20 18 14 11 8 4 5 5 4 3 3 3 4 3 4 5 7 7 4 5 5 6 7 1 4 3 19 52 54 56 59 60 62 64 65 65 65
47 48 47 48 48 48 48 48 49 49 48 48 48 48 49 49 49 49 49 50 50 51 51 51 51 50 46 42 37 35 32 41 46 51 53 54 53 50 46 37 33 28 31 34 34 33 30 26 23 22 21 16 16 11 9 5 5 5 7 8 8 7 8 10 9 7 6 11 11 13 8 7 5 7 1 1 3 4 40 52 56 58 59 61 63 64 65 65
47 48 48 48 48 48 48 48 49 49 48 48 48 48 48 49 49 49 49 50 50 51 51 51 51 49 47 44 38 35 35 26 48 48 49 51 49 45 42 34 29 28 30 30 30 30 28 23 20 16 10 12 6 6 4 5 3 4 4 2 4 3 3 7 7 7 10 7 10 10 9 7 5 1 2 2 3 3 31 48 52 56 58 60 62 63 63 63
48 47 47 48 48 47 48 48 48 48 48 48 48 48 48 49 49 49 49 50 50 51 51 51 51 49 46 40 37 38 34 33 27 40 40 42 40 37 37 29 25 26 27 28 29 25 20 18 16 12 14 13 9 3 10 10 9 4 3 3 3 3 2 3 5 6 5 5 9 7 6 5 1 1 1 1 1 11 47 50 53 56 58 60 61 61 61 62
47 48 48 48 48 47 47 48 48 48 48 48 48 48 48 49 49 50 50 50 51 51 51 52 50 48 46 41 34 35 34 33 30 38 33 34 32 30 31 27 24 25 29 30 27 21 18 17 17 16 16 13 11 12 9 9 11 7 4 4 6 7 3 3 3 3 3 4 5 5 7 8 4 2 2 1 -0 16 48 49 51 55 58 59 59 60 61 62
47 47 47 47 48 47 47 47 47 47 47 48 48 48 48 49 49 50 50 50 50 51 52 53 50 47 42 39 38 38 56 47 31 32 35 31 29 28 30 29 24 26 28 28 26 29 23 20 20 18 13 15 13 11 8 8 12 7 11 7 5 4 3 4 6 3 0 4 5 3 16 3 3 2 1 1 0 9 49 50 53 54 57 58 58 59 61 62
48 48 48 48 47 47 47 46 47 47 47 48 48 48 49 49 49 50 50 50 50 51 51 48 48 46 40 33 26 40 34 20 16 28 32 32 30 29 31 28 24 24 25 26 29 29 25 23 19 15 13 13 10 9 9 10 13 9 8 25 7 3 3 2 3 2 0 1 3 3 4 3 2 3 2 0 -0 3 44 49 54 55 56 57 58 58 59 61
46 47 47 48 47 47 47 46 46 47 47 47 48 48 49 49 50 50 50 50 49 50 48 44 43 46 35 31 36 23 22 19 18 20 28 30 30 30 30 28 25 24 27 29 28 27 24 23 22 19 14 10 13 10 11 13 16 15 6 10 11 7 7 3 1 1 -0 1 1 2 4 4 6 6 3 2 2 19 31 48 52 54 54 55 57 57 57 59
46 46 46 46 46 46 46 46 46 47 47 48 48 48 47 49 50 50 49 50 48 47 46 46 43 39 37 37 34 29 23 18 14 12 22 27 28 28 25 25 26 26 28 27 27 25 23 22 15 19 22 20 15 14 12 11 15 16 19 15 11 6 6 4 0 -1 0 2 3 4 7 6 7 7 5 10 13 17 26 46 48 52 52 53 55 56 56 57
46 46 46 46 46 46 46 46 47 47 47 48 48 48 50 52 50 47 44 44 44 43 39 40 39 33 15 26 37 34 24 18 12 11 16 26 28 28 26 28 24 24 24 25 24 23 20 20 27 17 14 16 12 10 11 10 9 9 12 12 11 12 7 1 1 3 3 5 5 7 6 7 11 8 13 18 14 17 18 45 49 49 50 51 52 55 55 56
46 46 46 46 46 46 46 46 46 47 47 46 44 44 45 48 47 47 45 43 41 39 31 35 38 33 27 18 25 34 28 17 10 8 16 25 27 27 25 23 22 22 23 25 25 25 20 18 16 14 14 16 19 13 11 9 8 7 6 6 7 7 7 6 2 4 5 4 10 9 12 8 8 9 18 15 20 19 17 45 49 49 49 49 49 53 53 53
45 45 46 45 46 46 46 46 46 47 47 45 44 42 39 34 28 34 43 41 40 39 37 35 35 35 27 22 22 22 18 17 14 6 11 23 22 23 22 22 21 24 23 22 26 28 19 19 18 17 15 14 17 23 24 19 18 13 11 9 9 11 12 12 9 6 8 25 11 17 11 13 11 12 13 18 17 18 22 35 49 49 49 49 50 51 52 52
45 45 45 45 45 46 46 46 47 47 48 45 43 40 36 34 29 29 31 25 32 40 38 36 34 32 31 29 28 26 26 22 22 8 12 19 17 18 19 20 19 19 23 23 24 25 21 18 19 16 14 17 19 22 24 22 21 18 15 13 14 14 14 14 7 8 6 16 19 12 14 16 19 19 18 18 19 21 24 24 48 48 48 48 49 49 49 51
45 46 45 45 45 45 46 46 47 48 45 43 40 40 39 36 33 26 29 26 26 27 34 38 37 36 34 32 27 25 22 21 21 13 13 17 15 15 17 16 17 18 22 23 23 26 20 16 17 15 17 19 17 15 20 25 24 20 18 14 11 13 17 14 23 8 10 14 20 22 15 26 28 25 21 20 12 14 8 19 36 47 47 47 48 48 49 50
45 46 46 45 45 46 46 47 47 45 43 42 39 35 36 35 29 24 34 31 27 24 23 23 31 35 34 28 22 19 19 19 20 18 17 15 12 12 11 14 13 17 19 21 20 21 18 17 16 15 14 16 21 21 20 21 19 28 23 18 17 15 15 13 16 19 28 26 22 18 23 23 25 16 17 17 24 22 12 15 19 42 47 47 47 49 50 49
45 45 45 45 45 46 46 46 44 42 42 42 40 37 35 31 30 35 34 32 29 24 22 19 18 26 30 28 22 17 18 18 15 18 16 14 12 10 9 13 12 14 17 19 19 18 17 19 18 14 13 12 13 14 17 21 17 25 32 29 21 20 19 17 17 12 17 20 24 13 14 18 22 18 15 15 14 14 16 16 12 20 35 45 46 48 50 50
45 45 45 45 45 46 46 43 44 40 37 38 39 40 39 37 36 34 37 36 30 27 20 14 17 17 25 19 17 16 17 15 16 13 20 18 19 11 11 12 14 12 14 14 15 19 14 18 23 16 15 12 8 8 11 17 20 22 25 24 22 19 19 16 10 12 15 11 23 29 12 20 21 18 17 16 15 14 18 17 14 13 19 20 25 46 49 48
45 45 45 45 45 46 41 42 43 40 35 33 34 34 27 37 42 42 38 30 22 21 13 12 16 15 22 17 12 12 14 12 15 12 24 24 17 16 11 10 15 15 13 23 18 13 14 13 15 15 18 11 9 7 16 16 17 18 26 18 17 17 15 13 10 7 12 23 30 23 14 14 11 17 19 18 20 12 11 15 17 12 22 24 45 48 48 49
45 45 45 45 45 45 43 43 42 40 35 36 33 27 30 39 43 44 37 26 22 17 12 14 14 24 18 12 11 13 15 17 12 11 14 23 23 16 16 12 11 12 12 14 13 20 24 18 18 18 19 14 12 13 23 17 17 19 18 15 13 11 12 9 7 12 17 16 12 18 16 12 12 18 17 13 11 31 32 37 38 38 39 43 48 50 52 53
44 44 45 45 45 46 45 44 42 41 40 37 36 30 35 43 41 36 33 26 28 18 22 15 19 17 17 13 14 16 14 13 9 8 7 23 22 20 15 16 16 14 11 11 15 24 13 18 15 14 14 13 15 14 16 17 17 15 13 13 12 9 11 15 18 15 21 14 16 19 25 9 11 25 19 18 23 34 37 39 41 40 37 38 45 50 53 54
44 44 45 45 45 43 44 45 42 42 42 42 38 30 39 42 39 31 25 19 28 22 17 17 18 15 17 15 16 16 14 11 12 5 4 20 21 21 19 19 16 15 15 11 10 10 10 27 22 14 14 16 17 16 19 17 14 13 11 10 9 8 16 22 22 19 18 11 17 17 20 11 10 18 33 37 38 38 39 40 42 40 41 48 51 51 53 53
44 44 45 45 42 41 41 40 41 43 42 43 41 41 42 41 37 27 19 24 21 16 17 16 15 18 17 15 15 16 15 13 11 2 -1 15 20 18 19 14 16 15 21 20 18 9 8 8 13 16 23 17 17 17 16 16 14 10 12 10 12 20 13 18 23 19 10 15 19 12 15 14 9 20 35 39 42 42 41 42 42 44 46 48 55 55 55 55
45 45 45 44 43 43 41 38 42 42 41 42 43 42 39 30 30 28 24 15 13 20 17 16 16 16 18 18 15 14 12 11 12 2 -3 -2 18 16 15 17 22 14 15 17 17 14 9 6 13 18 24 17 14 14 14 12 10 7 12 17 13 14 15 12 12 10 11 13 16 9 6 9 16 34 38 41 41 44 47 47 47 49 49 51 55 56 55 54
46 47 47 45 45 43 43 43 43 42 42 42 44 41 35 28 20 21 23 26 16 15 13 17 15 13 15 16 14 13 13 12 14 10 1 -2 12 13 12 11 16 19 17 24 20 18 12 8 9 13 16 21 16 14 20 15 11 13 11 19 13 10 10 8 13 13 13 15 16 11 12 13 35 36 40 41 42 44 46 48 50 50 52 54 55 55 56 55
47 47 45 45 44 43 44 45 42 41 42 45 42 38 34 27 25 23 21 21 14 13 11 12 13 12 11 11 12 13 11 13 13 11 7 7 2 16 10 10 10 14 21 27 17 17 14 9 9 12 15 16 15 17 16 18 14 12 14 12 19 14 15 8 8 8 11 15 26 19 22 15 31 36 42 41 42 43 45 47 51 53 54 54 54 54 54 54
47 47 46 46 45 44 44 44 44 44 44 44 39 35 28 28 30 27 21 12 10 10 7 10 11 9 12 11 10 11 13 15 12 10 7 9 8 15 16 8 9 8 17 15 26 18 14 18 18 11 12 16 16 17 18 17 15 13 12 11 14 17 17 9 15 12 14 18 21 20 21 34 34 42 42 42 41 42 46 49 51 50 50 52 52 53 54 54
46 44 46 46 45 45 45 44 44 44 44 43 37 29 29 29 28 20 15 7 5 6 5 7 6 9 14 9 7 5 14 15 12 13 11 10 11 9 9 7 6 6 14 18 24 15 13 19 13 11 11 14 16 18 17 16 15 22 10 11 12 21 14 15 16 23 20 17 16 20 35 38 40 40 41 43 42 43 48 49 50 50 50 52 53 53 54 54
42 43 43 46 46 47 46 45 43 44 43 41 35 29 31 29 26 25 14 5 5 6 2 6 19 10 18 9 11 3 14 9 19 11 16 12 15 7 6 6 5 4 4 18 22 14 20 22 17 14 10 12 16 16 15 14 13 13 14 14 13 12 19 16 14 16 10 10 14 19 27 34 35 30 40 43 44 46 48 49 50 51 51 52 53 53 54 54
42 42 45 45 46 47 45 44 43 43 42 39 34 36 32 29 29 26 7 7 6 2 3 9 12 3 8 7 6 4 13 8 19 11 17 11 20 10 8 8 6 4 4 6 10 25 13 11 17 18 17 15 14 14 13 13 12 9 10 15 14 15 13 19 5 6 9 11 14 16 30 32 35 35 40 42 45 46 48 49 49 49 50 51 52 53 53 54
42 42 42 44 45 46 44 43 43 40 38 34 29 31 30 27 25 20 7 6 12 3 5 1 11 11 -1 9 6 9 9 14 18 20 15 15 13 36 24 11 12 6 6 6 8 18 26 15 21 18 17 16 14 13 18 14 12 12 12 9 13 21 21 11 13 14 17 16 12 16 27 25 38 38 41 45 46 47 48 49 49 51 52 52 52 53 54 54
41 42 45 44 43 43 41 42 40 38 34 28 28 27 24 18 19 10 8 8 5 6 16 9 9 11 14 13 10 10 10 11 16 22 16 32 23 38 25 28 23 13 6 7 6 9 18 26 16 26 16 16 15 17 17 17 15 13 12 14 14 24 27 18 28 11 17 16 18 19 22 28 36 43 45 46 47 47 49 49 50 51 51 52 52 53 53 53
43 43 43 43 40 41 41 39 36 33 30 27 23 20 19 17 15 14 15 18 10 11 12 11 16 21 18 18 14 11 13 12 18 28 16 32 26 27 31 26 25 28 29 5 3 19 13 18 19 24 17 19 19 15 14 14 13 14 13 15 12 17 16 11 19 22 20 14 16 19 21 32 41 47 48 46 48 49 50 50 49 50 50 50 50 51 52 52
44 40 44 44 43 42 39 34 34 33 30 25 23 20 17 32 13 12 10 16 16 8 10 18 18 20 19 16 11 11 10 12 8 13 23 26 41 30 34 27 25 30 30 33 33 34 28 29 27 18 18 18 16 15 16 14 16 14 10 11 9 16 18 17 13 22 22 23 29 30 29 30 43 47 48 49 48 48 49 50 49 49 49 48 48 49 50 49
42 41 51 48 45 39 36 31 31 28 28 26 22 21 17 17 17 13 11 14 9 14 18 21 20 18 22 14 11 8 6 18 10 20 29 29 35 30 33 28 29 28 32 37 35 37 50 23 18 19 17 18 17 17 17 15 13 13 17 21 12 12 14 20 22 27 22 26 26 25 26 33 43 48 49 48 47 47 47 47 47 47 48 49 48 48 47 47
44 44 44 46 43 39 36 28 25 25 28 25 26 25 24 21 20 18 12 16 17 23 21 22 12 17 18 10 12 12 10 17 14 13 26 30 33 30 36 37 37 32 37 38 35 41 27 31 24 20 17 18 22 20 17 28 31 28 28 34 33 26 28 30 30 29 22 26 26 25 25 29 41 48 50 47 46 45 45 45 46 45 47 46 45 46 46 46
46 48 48 47 44 43 39 39 37 32 36 36 32 28 27 28 20 19 20 18 19 16 23 27 18 23 16 14 13 13 13 14 21 18 22 35 36 31 35 39 38 38 43 44 47 38 31 31 29 20 20 16 14 16 26 30 32 32 35 39 39 37 37 33 26 26 25 30 29 29 33 38 43 46 46 45 44 43 43 43 44 44 45 44 44 43 44 44
44 34 42 46 45 44 43 43 42 39 35 35 27 33 26 28 23 21 21 20 19 21 20 21 17 21 20 20 25 20 17 17 16 24 15 32 31 31 38 39 40 40 48 48 46 40 35 37 32 30 27 28 28 31 35 36 35 32 38 39 40 39 37 36 34 29 28 29 31 35 38 40 42 44 43 42 42 42 41 41 42 43 42 42 41 41 42 42
47 38 35 33 42 42 41 41 40 38 35 35 26 34 29 27 24 22 22 26 21 19 21 20 17 25 27 22 29 24 20 19 18 18 19 27 37 34 39 41 44 45 48 45 46 39 36 30 37 36 34 32 32 34 37 36 35 38 39 39 40 40 38 34 29 29 36 30 26 35 41 40 41 42 41 41 41 40 40 40 40 41 41 40 40 39 41 40
38 43 42 42 37 32 34 34 37 38 36 34 35 35 32 31 31 28 21 20 18 22 28 23 18 18 19 27 31 22 27 25 24 26 32 35 33 36 38 36 39 42 41 42 44 43 38 29 38 37 35 33 31 32 35 35 37 38 38 39 39 40 40 37 37 38 37 29 28 36 41 40 40 40 40 40 39 38 38 38 39 39 39 39 39 38 39 40
47 45 43 43 37 39 35 36 36 35 37 33 32 33 34 34 32 32 28 31 20 28 18 18 32 18 16 17 24 28 28 21 21 37 37 37 35 35 36 39 39 36 40 43 43 45 39 32 37 38 35 37 34 35 36 37 37 36 37 38 39 40 40 40 40 41 40 37 36 40 40 38 40 40 39 39 39 38 38 38 38 37 38 38 38 38 38 39
42 40 42 41 45 40 38 37 38 37 35 33 27 36 35 34 33 34 30 29 26 31 21 30 23 19 20 18 21 27 33 34 32 28 37 36 36 37 35 36 35 35 35 42 45 45 38 32 38 37 31 32 36 36 37 37 35 34 35 37 38 39 39 39 39 39 39 39 39 38 37 35 40 40 38 37 37 37 37 37 37 37 37 38 37 37 38 38
49 49 45 41 36 41 41 38 34 32 33 29 27 35 33 33 33 34 32 27 30 32 31 30 29 29 26 26 29 29 26 31 34 32 33 35 30 37 33 35 35 36 37 41 42 43 40 33 40 37 29 28 36 37 37 36 34 33 34 35 36 38 36 38 36 38 40 37 38 37 35 34 38 37 36 36 36 36 36 36 36 36 37 37 37 37 37 37
52 45 44 43 36 34 33 35 34 31 25 31 34 31 31 29 29 25 27 28 23 28 32 27 31 29 31 34 34 33 30 28 27 26 24 24 24 35 34 38 35 34 32 37 40 37 38 34 33 33 30 29 37 37 36 36 34 32 31 35 36 39 39 38 38 39 39 40 36 34 35 38 37 36 35 35 36 36 36 36 36 36 36 36 36 36 37 37